Location: Brantford
(43.1330°N, 80.2670°W)
Time: 04:28:56
(UTC-05:00)

Tiros 1 despin weight - Pass Details

Date: 25 November 2019
Orbit: 594 x 642 km, 48.2° (Epoch: 10 December)

Event Time Altitude Azimuth Distance (km) Brightness Sun altitude
Rises 17:24:25 0° 290° (WNW) 2,840 ? -6.5°
Reaches altitude 10° 17:26:54 10° 280° (W) 1,940 ? -7.0°
Maximum altitude 17:30:46 30° 219° (SW) 1,100 ? -7.6°
Drops below altitude 10° 17:34:40 10° 159° (SSE) 1,954 ? -8.3°
Sets 17:37:11 0° 148° (SSE) 2,864 ? -8.7°
